Cumberland, WI

10:24 AM CST on February 09, 2016 (GMT -0600)
Cumberland Municipal

Weather History for KUBE - November, 2012

Change the Weather History Date:

Friday, November 30, 2012

  Actual Average (KRPD) Record (KRPD)
Temperature  
Mean Temperature 30 °F -  
Max Temperature 32 °F 33 °F 55 °F (1998)
Min Temperature 28 °F 20 °F 3 °F (2014)
Degree Days  
Heating Degree Days 35    
Moisture  
Dew Point 26 °F    
Average Humidity 87    
Maximum Humidity 100    
Minimum Humidity 80    
Precipitation  
Precipitation 0.00 in - - ()
Sea Level Pressure  
Sea Level Pressure 30.14 in    
Wind  
Wind Speed 8 mph (ESE)    
Max Wind Speed 15 mph    
Max Gust Speed 18 mph    
Visibility 8 miles    
Events      
Averages and records for this station are not official NWS values.
T = Trace of Precipitation, MM = Missing Value Source: NWS Daily Summary

Daily Weather History Graph

Daily Weather History Graph

Search for Another Location

Airport or City:

Trip Planner

Search our weather history database for the weather conditions in past years. The results will help you decide how hot, cold, wet, or windy it might be!

Date:

Astronomy

Nov. 30, 2012 Rise Set
Actual Time 7:27 AM CST 4:26 PM CST
Civil Twilight 6:53 AM CST 4:59 PM CST
Nautical Twilight 6:16 AM CST 5:36 PM CST
Astronomical Twilight 5:40 AM CST 6:12 PM CST
Moon 6:22 PM CST (11/30) 8:59 AM CST (11/30)
Length of Visible Light 10h 06m
Length of Day
8h 59m
Waning Gibbous, 96% of the Moon is Illuminated
Nov 30
Waning Gibbous
Dec 6
Last Quarter
Dec 13
New
Dec 19
First Quarter
Dec 28
Full

Hourly Weather History & Observations

Time (CST) Temp. Windchill Dew Point Humidity Pressure Visibility Wind Dir Wind Speed Gust Speed Precip Events Conditions
12:15 AM 28.4 °F 21.2 °F 24.8 °F 86% 30.13 in 7.0 mi NE 6.9 mph - N/A   Overcast
12:35 AM 28.4 °F 19.7 °F 24.8 °F 86% 30.13 in 10.0 mi NE 9.2 mph - N/A   Overcast
12:55 AM 28.4 °F 19.7 °F 24.8 °F 86% 30.13 in 7.0 mi ENE 9.2 mph - N/A   Overcast
1:15 AM 28.4 °F 19.7 °F 24.8 °F 86% 30.13 in 7.0 mi NE 9.2 mph - N/A   Overcast
1:35 AM 28.4 °F 18.5 °F 26.6 °F 93% 30.12 in 7.0 mi ENE 11.5 mph - N/A   Overcast
1:55 AM 28.4 °F 19.7 °F 26.6 °F 93% 30.13 in 7.0 mi ENE 9.2 mph - N/A   Overcast
2:15 AM 28.4 °F 19.7 °F 26.6 °F 93% 30.13 in 7.0 mi ENE 9.2 mph - N/A   Overcast
2:35 AM 28.4 °F 19.1 °F 26.6 °F 93% 30.12 in 7.0 mi ENE 10.4 mph - N/A   Overcast
2:55 AM 30.2 °F 21.3 °F 26.6 °F 86% 30.13 in 7.0 mi ENE 10.4 mph - N/A   Overcast
3:15 AM 30.2 °F 21.3 °F 26.6 °F 86% 30.13 in 7.0 mi ENE 10.4 mph - N/A   Overcast
3:35 AM 30.2 °F 21.3 °F 26.6 °F 86% 30.11 in 7.0 mi East 10.4 mph - N/A   Overcast
3:55 AM 28.4 °F 19.1 °F 26.6 °F 93% 30.11 in 7.0 mi East 10.4 mph 16.1 mph N/A   Overcast
4:15 AM 28.4 °F 19.7 °F 24.8 °F 86% 30.12 in 7.0 mi ENE 9.2 mph - N/A   Overcast
4:35 AM 28.4 °F 19.1 °F 24.8 °F 86% 30.13 in 10.0 mi ENE 10.4 mph - N/A   Overcast
4:55 AM 28.4 °F 18.5 °F 24.8 °F 86% 30.13 in 10.0 mi East 11.5 mph - N/A   Overcast
5:15 AM 28.4 °F 19.7 °F 24.8 °F 86% 30.14 in 10.0 mi East 9.2 mph - N/A   Overcast
5:35 AM 28.4 °F 19.7 °F 24.8 °F 86% 30.14 in 10.0 mi ENE 9.2 mph - N/A   Overcast
5:55 AM 28.4 °F 19.7 °F 24.8 °F 86% 30.15 in 10.0 mi ENE 9.2 mph - N/A   Overcast
6:15 AM 28.4 °F 19.1 °F 24.8 °F 86% 30.15 in 10.0 mi ENE 10.4 mph - N/A   Overcast
6:35 AM 28.4 °F 18.5 °F 24.8 °F 86% 30.15 in 10.0 mi East 11.5 mph - N/A   Overcast
6:55 AM 28.4 °F 21.2 °F 24.8 °F 86% 30.16 in 10.0 mi East 6.9 mph - N/A   Overcast
7:15 AM 28.4 °F 21.2 °F 24.8 °F 86% 30.15 in 10.0 mi East 6.9 mph - N/A   Overcast
7:35 AM 28.4 °F 22.2 °F 24.8 °F 86% 30.16 in 10.0 mi ESE 5.8 mph - N/A   Overcast
7:55 AM 28.4 °F 21.2 °F 24.8 °F 86% 30.15 in 10.0 mi East 6.9 mph - N/A   Overcast
8:15 AM 28.4 °F 21.2 °F 24.8 °F 86% 30.17 in 10.0 mi ESE 6.9 mph - N/A   Overcast
8:35 AM 28.4 °F 23.3 °F 24.8 °F 86% 30.17 in 10.0 mi ESE 4.6 mph - N/A   Overcast
8:55 AM 28.4 °F 21.2 °F 24.8 °F 86% 30.17 in 10.0 mi East 6.9 mph - N/A   Overcast
9:15 AM 28.4 °F 20.4 °F 24.8 °F 86% 30.17 in 10.0 mi East 8.1 mph - N/A   Overcast
9:35 AM 28.4 °F 20.4 °F 24.8 °F 86% 30.18 in 10.0 mi East 8.1 mph - N/A   Overcast
9:55 AM 28.4 °F 19.7 °F 24.8 °F 86% 30.17 in 10.0 mi East 9.2 mph - N/A   Overcast
10:15 AM 28.4 °F 19.7 °F 24.8 °F 86% 30.17 in 10.0 mi East 9.2 mph - N/A   Overcast
10:35 AM 28.4 °F 22.2 °F 24.8 °F 86% 30.20 in 10.0 mi East 5.8 mph - N/A   Overcast
10:55 AM 28.4 °F 23.3 °F 24.8 °F 86% 30.19 in 10.0 mi East 4.6 mph - N/A   Overcast
11:15 AM 30.2 °F 23.4 °F 24.8 °F 80% 30.19 in 10.0 mi East 6.9 mph - N/A   Overcast
11:35 AM 30.2 °F 25.4 °F 24.8 °F 80% 30.17 in 10.0 mi ESE 4.6 mph - N/A   Overcast
11:55 AM 30.2 °F 22.6 °F 24.8 °F 80% 30.16 in 10.0 mi East 8.1 mph - N/A   Overcast
12:15 PM 30.2 °F 22.6 °F 24.8 °F 80% 30.16 in 10.0 mi East 8.1 mph - N/A   Overcast
12:35 PM 30.2 °F 26.7 °F 24.8 °F 80% 30.17 in 10.0 mi ESE 3.5 mph - N/A   Overcast
12:55 PM 30.2 °F 25.4 °F 24.8 °F 80% 30.16 in 10.0 mi ESE 4.6 mph - N/A   Overcast
1:15 PM 30.2 °F 26.7 °F 24.8 °F 80% 30.16 in 10.0 mi ESE 3.5 mph - N/A   Overcast
1:35 PM 30.2 °F 24.3 °F 24.8 °F 80% 30.16 in 10.0 mi SE 5.8 mph - N/A   Overcast
1:55 PM 30.2 °F 25.4 °F 24.8 °F 80% 30.16 in 10.0 mi East 4.6 mph - N/A   Overcast
2:15 PM 30.2 °F 25.4 °F 24.8 °F 80% 30.16 in 10.0 mi ESE 4.6 mph - N/A   Overcast
2:35 PM 30.2 °F 24.3 °F 26.6 °F 86% 30.16 in 10.0 mi ESE 5.8 mph - N/A   Overcast
2:55 PM 30.2 °F 23.4 °F 26.6 °F 86% 30.13 in 10.0 mi ESE 6.9 mph - N/A   Overcast
3:15 PM 30.2 °F 24.3 °F 26.6 °F 86% 30.15 in 10.0 mi East 5.8 mph - N/A   Overcast
3:35 PM 30.2 °F 24.3 °F 26.6 °F 86% 30.15 in 10.0 mi ESE 5.8 mph - N/A   Overcast
3:55 PM 30.2 °F 25.4 °F 26.6 °F 86% 30.16 in 10.0 mi ESE 4.6 mph - N/A   Overcast
4:15 PM 30.2 °F 23.4 °F 26.6 °F 86% 30.14 in 10.0 mi ESE 6.9 mph - N/A   Overcast
4:35 PM 30.2 °F 25.4 °F 26.6 °F 86% 30.14 in 10.0 mi ESE 4.6 mph - N/A   Overcast
4:55 PM 30.2 °F 23.4 °F 26.6 °F 86% 30.14 in 10.0 mi ESE 6.9 mph - N/A   Overcast
5:15 PM 30.2 °F 24.3 °F 26.6 °F 86% 30.13 in 10.0 mi ESE 5.8 mph - N/A   Overcast
5:35 PM 30.2 °F 23.4 °F 26.6 °F 86% 30.12 in 10.0 mi SE 6.9 mph - N/A   Overcast
5:55 PM 30.2 °F 22.6 °F 26.6 °F 86% 30.12 in 10.0 mi SE 8.1 mph - N/A   Overcast
6:15 PM 30.2 °F 21.9 °F 26.6 °F 86% 30.13 in 10.0 mi SE 9.2 mph - N/A   Overcast
6:35 PM 30.2 °F 22.6 °F 28.4 °F 93% 30.11 in 10.0 mi SE 8.1 mph - N/A   Overcast
6:55 PM 32.0 °F 24.2 °F 28.4 °F 87% 30.11 in 10.0 mi SE 9.2 mph - N/A   Overcast
7:15 PM 32.0 °F 24.2 °F 28.4 °F 87% 30.11 in 10.0 mi SE 9.2 mph - N/A   Overcast
7:35 PM 32.0 °F 24.2 °F 28.4 °F 87% 30.12 in 7.0 mi SSE 9.2 mph - N/A   Overcast
8:15 PM 32.0 °F 24.2 °F 28.4 °F 87% 30.10 in 7.0 mi SSE 9.2 mph - N/A   Overcast
8:35 PM 32.0 °F 23.6 °F 30.2 °F 93% 30.10 in 7.0 mi SSE 10.4 mph - N/A   Overcast
8:55 PM 32.0 °F 22.5 °F 30.2 °F 93% 30.10 in 5.0 mi SSE 12.7 mph - N/A   Overcast
9:15 PM 32.0 °F 23.6 °F 30.2 °F 93% 30.10 in 5.0 mi SE 10.4 mph - N/A   Overcast
9:35 PM 32.0 °F 23.0 °F 30.2 °F 93% 30.10 in 5.0 mi SE 11.5 mph 17.3 mph N/A   Overcast
10:15 PM 32.0 °F 22.5 °F 30.2 °F 93% 30.10 in 3.0 mi SSE 12.7 mph 17.3 mph N/A   Overcast
10:35 PM 32.0 °F 23.0 °F 30.2 °F 93% 30.09 in 3.0 mi SSE 11.5 mph 17.3 mph N/A   Overcast
10:55 PM 32.0 °F 21.6 °F 30.2 °F 93% 30.08 in 2.5 mi SSE 15.0 mph 18.4 mph N/A   Overcast
11:15 PM 32.0 °F 21.6 °F 30.2 °F 93% 30.08 in 2.0 mi SSE 15.0 mph - N/A   Overcast
11:35 PM 32.0 °F 23.0 °F 32.0 °F 100% 30.10 in 2.0 mi SSE 11.5 mph - N/A   Overcast
11:55 PM 32.0 °F 22.1 °F 32.0 °F 100% 30.09 in 2.0 mi SSE 13.8 mph 18.4 mph N/A   Overcast